User: anonymous
Location: Caltech
(34.1382°N, 118.1253°W)
Time: 19:15:04
(UTC-07:00)
Language:

JAS-2 - Orbit

View from above orbital plane
View from above orbital plane
View from above satellite
View from above satellite

Ground track
Ground track

The orbit data is extracted from the following two-line orbital elements,

1 24278U 96046B   14244.62498402  .00000025  00000-0  58192-4 0  4539
2 24278 098.5143 247.9354 0351579 099.3389 031.8262 13.53028109891002
Epoch (UTC): 01 September 2014 14:59:58
Eccentricity: 0.0351579
inclination: 98.5143°
perigee height: 799 km
apogee height: 1322 km
right ascension of ascending node: 247.9354°
argument of perigee: 99.3389°
revolutions per day: 13.53028109
mean anomaly at epoch: 31.8262°
orbit number at epoch: 89100

The dashed part of the orbit path shows where the satellite is in the earth's shadow,  

DLR